Location: Olsztyn
(53.7767°N, 20.4765°E)
Time: 21:18:22
(UTC+02:00)

Altair - Pass Details

Date: 21 July 2024
Orbit: 1501 x 1682 km, 47.2° (Epoch: 28 April)

Event Time Altitude Azimuth Distance (km) Brightness Sun altitude
Rises 23:09:28 0° 277° (W) 4,660 10.5 -13.2°
Reaches altitude 10° 23:12:39 10° 272° (W) 3,666 9.8 -13.4°
Maximum altitude 23:21:12 45° 204° (SSW) 1,947 7.7 -13.8°
Enters shadow 23:28:33 15° 138° (SE) 3,313 8.7 -14.2°
